EW8930 Weather Reports


time (UTC)temp
F
wind
direction
speed
knots
gust
knots
rain 1hr
in
rain 24hr
in
rain mn
in
humidity
%
barometer
mb
20260903043025 78 229 0.9 4.3 0.00 0.01 0.00 79 1012.5
20260903041520 79 221 2.6 4.3 0.00 0.01 0.00 80 1012.4
20260903040017 79 221 1.7 6.1 0.00 0.01 0.00 80 1012.3
20260903034515 80 194 2.6 7.8 0.00 0.01 0.01 81 1012.1
20260903033015 80 206 3.5 7.8 0.00 0.01 0.01 81 1011.8
20260903031518 80 214 3.5 8.7 0.00 0.01 0.01 81 1011.6
20260903030013 80 202 2.6 8.7 0.00 0.01 0.01 81 1011.8
20260903024511 80 221 4.3 7.8 0.00 0.01 0.01 81 1012.1
20260903023011 80 243 3.5 7.0 0.00 0.01 0.01 81 1012.2
20260903021516 81 227 2.6 5.2 0.00 0.01 0.01 80 1012.3
20260903020011 81 217 3.5 6.1 0.00 0.01 0.01 80 1012.4
20260903014508 81 217 1.7 5.2 0.00 0.01 0.01 79 1012.4
20260903013007 82 211 2.6 5.2 0.00 0.01 0.01 78 1012.4
20260903011507 82 204 2.6 5.2 0.00 0.01 0.01 78 1012.3
20260903010020 83 215 2.6 5.2 0.00 0.01 0.01 77 1012.2
20260903004506 83 219 2.6 5.2 0.00 0.01 0.01 76 1012.1
20260903003005 84 216 1.7 4.3 0.00 0.01 0.01 75 1012.0
20260903001511 85 224 1.7 4.3 0.00 0.01 0.01 73 1012.1
20260903000004 86 228 1.7 6.1 0.00 0.01 0.01 71 1012.1
20260902234504 87 228 2.6 6.1 0.00 0.01 0.01 69 1012.0
20260902233003 88 210 1.7 4.3 0.00 0.01 0.01 66 1012.0
20260902231503 89 246 3.5 7.0 0.00 0.01 0.01 64 1012.0
20260902230002 90 226 3.5 9.6 0.00 0.01 0.01 63 1012.0
20260902224500 90 211 4.3 8.7 0.00 0.02 0.01 61 1012.1
20260902223100 91 215 3.5 7.8 0.00 0.02 0.01 62 1012.1
20260902221600 92 226 2.6 7.8 0.00 0.02 0.01 61 1012.2
20260902220104 92 268 6.1 10.4 0.00 0.02 0.01 58 1012.1
20260902214605 92 213 3.5 8.7 0.00 0.04 0.01 60 1012.1
20260902213056 92 238 5.2 10.4 0.00 0.04 0.01 58 1012.3
20260902211556 93 235 7.8 12.2 0.00 0.04 0.01 56 1012.2
20260902210056 93 263 5.2 10.4 0.00 0.04 0.01 56 1012.4
20260902204553 93 219 6.1 10.4 0.00 0.05 0.01 56 1012.5
20260902203050 93 224 5.2 11.3 0.00 0.05 0.01 58 1012.8
20260902201548 93 210 4.3 11.3 0.00 0.05 0.01 59 1012.9
20260902200047 93 205 4.3 9.6 0.00 0.05 0.01 58 1013.0
20260902194644 93 226 5.2 10.4 0.00 0.05 0.01 59 1013.1
20260902193044 93 217 4.3 8.7 0.00 0.05 0.01 59 1013.3
20260902191541 93 205 4.3 8.7 0.00 0.05 0.01 63 1013.4
20260902190039 92 239 4.3 9.6 0.00 0.05 0.01 61 1013.6
20260902184536 92 221 4.3 10.4 0.00 0.05 0.01 62 1013.7
20260902183035 92 267 4.3 10.4 0.00 0.05 0.01 61 1013.8
20260902181533 92 243 3.5 10.4 0.00 0.05 0.01 63 1014.0
20260902180031 91 202 3.5 8.7 0.00 0.05 0.01 66 1014.1
20260902174533 91 256 4.3 8.7 0.00 0.05 0.01 65 1014.4
20260902173034 90 208 4.3 12.2 0.00 0.05 0.01 66 1014.4
20260902171527 90 248 4.3 9.6 0.00 0.05 0.01 66 1014.6
20260902170023 89 275 2.6 7.8 0.00 0.05 0.01 70 1014.7
20260902164521 89 198 2.6 7.8 0.00 0.05 0.01 69 1014.8
20260902163020 89 260 3.5 8.7 0.00 0.05 0.01 69 1015.1
20260902161535 89 277 3.5 7.0 0.00 0.05 0.01 71 1015.2
20260902160017 88 242 2.6 9.6 0.00 0.05 0.01 70 1015.2
20260902154515 87 236 2.6 6.1 0.00 0.05 0.01 71 1015.2
20260902153014 87 287 2.6 7.0 0.00 0.05 0.01 71 1015.2
20260902151512 87 219 1.7 7.0 0.00 0.05 0.01 72 1015.0
20260902150008 86 230 4.3 8.7 0.00 0.05 0.01 73 1015.0
20260902144510 85 232 1.7 5.2 0.00 0.05 0.01 75 1014.9
20260902143003 85 264 3.5 8.7 0.00 0.05 0.01 75 1014.9
20260902141501 84 225 2.6 5.2 0.00 0.05 0.01 76 1014.8
20260902140058 83 239 0.9 4.3 0.00 0.05 0.01 76 1014.9
20260902134556 81 200 1.7 4.3 0.00 0.05 0.01 76 1014.9
20260902133050 80 236 1.7 4.3 0.00 0.05 0.01 74 1015.0
20260902131546 79 261 0.9 4.3 0.00 0.05 0.01 67 1014.9
20260902130043 77 223 2.6 5.2 0.00 0.05 0.01 60 1014.8
20260902124537 76 223 3.5 5.2 0.00 0.05 0.01 52 1015.0
20260902123035 75 234 1.7 7.0 0.00 0.05 0.01 44 1015.0
20260902121534 74 193 1.7 5.2 0.00 0.05 0.01 40 1015.0
20260902120030 74 227 0.9 3.5 0.00 0.05 0.01 37 1015.1
20260902114557 74 213 1.7 5.2 0.00 0.05 0.01 32 1014.8
20260902113027 73 234 0.9 3.5 0.00 0.05 0.01 29 1014.7
20260902111525 73 242 0.0 1.7 0.00 0.05 0.01 29 1014.5
20260902110036 73 222 0.0 1.7 0.00 0.05 0.01 29 1014.6
20260902104533 73 225 0.0 1.7 0.00 0.05 0.01 28 1014.5
20260902103024 73 214 0.0 1.7 0.00 0.05 0.01 27 1014.6
20260902101523 73 214 0.0 0.9 0.00 0.05 0.01 28 1014.6
20260902100021 73 214 0.0 0.9 0.00 0.05 0.01 29 1014.6
20260902094521 73 214 0.0 1.7 0.00 0.05 0.01 27 1014.6
20260902093021 74 214 0.0 1.7 0.00 0.05 0.01 26 1014.4
20260902091521 73 205 0.0 1.7 0.00 0.05 0.01 25 1014.5
20260902090019 73 210 0.0 0.9 0.00 0.05 0.01 25 1014.6
20260902084525 73 210 0.0 0.9 0.00 0.05 0.01 25 1014.6
20260902083026 73 209 0.0 1.7 0.00 0.05 0.01 26 1014.5
20260902081517 72 146 0.0 0.9 0.00 0.05 0.01 26 1014.4
20260902080017 72 146 0.0 0.0 0.00 0.05 0.01 26 1014.2
20260902074518 72 146 0.0 0.0 0.00 0.05 0.01 26 1014.1
20260902073014 73 146 0.0 0.9 0.01 0.05 0.01 26 1013.9
20260902071513 73 146 0.0 0.9 0.01 0.05 0.01 26 1013.9
20260902070012 73 146 0.0 0.9 0.01 0.05 0.01 26 1013.9
20260902064510 73 146 0.0 0.0 0.01 0.05 0.01 26 1014.0
20260902063016 73 146 0.0 0.9 0.00 0.04 0.00 26 1014.2
20260902061527 73 146 0.0 0.9 0.00 0.04 0.00 27 1014.2
20260902060016 73 146 0.0 0.0 0.00 0.04 0.00 27 1014.2
20260902054512 73 146 0.0 0.9 0.00 0.04 0.00 27 1014.3
20260902053010 73 146 0.0 0.0 0.00 0.04 0.00 27 1014.5
20260902051506 73 146 0.0 0.0 0.00 0.04 0.00 28 1014.5
20260902050008 73 146 0.0 0.0 0.00 0.04 0.00 28 1014.4
20260902044504 73 146 0.0 0.9 0.00 0.04 0.00 28 1014.3